Regional Weather Roundup
Issued by NWS

Home | Current Version | Previous Version | Text Only | Print | Product List | Glossary On
Versions: 1 2 3 4 5 6 7 8 9 10 11 12 13 14 15 16 17 18 19 20 21 22 23 24 25 26 27
000
ASUS46 KPQR 220810
RWROR

OREGON REGIONAL WEATHER ROUNDUP
NATIONAL WEATHER SERVICE PORTLAND OR
1200 AM PST WED FEB 22 2017

NOTE: "FAIR" INDICATES FEW OR NO CLOUDS BELOW 12,000 FEET WITH
NO SIGNIFICANT WEATHER AND/OR OBSTRUCTIONS TO VISIBILITY.

ORZ001>013-220900-
NORTHWEST OREGON


CITY           SKY/WX    TMP DP  RH WIND       PRES   REMARKS
ASTORIA        MOCLDY    37  34  89 SE3       30.19S
NEWPORT        RAIN      37  37 100 CALM      30.23R
PORTLAND       MOCLDY    36  35  96 CALM      30.20R
VANCOUVER WA   PTCLDY    37  36  96 CALM      30.19S
SCAPPOOSE      CLOUDY    36  35  96 NW3       30.19S
HILLSBORO      PTCLDY    34  31  88 NW5       30.19S WCI  30
AURORA         CLOUDY    38  38 100 CALM      30.20S FOG
MCMINNVILLE    CLOUDY    39  36  89 NW5       30.20S
SALEM          CLOUDY    38  37  97 CALM      30.19R
CORVALLIS        N/A     37  34  87 NW5       30.19S WCI  34
EUGENE         PTCLDY    36  35  96 SW3       30.19S FOG
$$

ORZ021-028-220900-
SOUTHWEST OREGON


CITY           SKY/WX    TMP DP  RH WIND       PRES   REMARKS
NORTH BEND     CLOUDY    45  43  93 CALM      30.21S
BROOKINGS      CLOUDY    42  41  96 E3        30.20S
ROSEBURG       LGT RAIN  43  41  93 CALM      30.17S
SEXTON SUMMIT  FOG       29  28  96 SW8       30.06S VSB 1/4 WCI  21
MEDFORD        CLOUDY    39  38  96 CALM      30.16S
$$

ORZ014>016-041-220900-
COLUMBIA GORGE


CITY           SKY/WX    TMP DP  RH WIND       PRES   REMARKS
TROUTDALE      PTCLDY    37  35  92 CALM      30.20R FOG
THE DALLES     MOCLDY    41  34  76 W8        30.13R
$$

ORZ029>031-041-044-049-050-061>064-502-503-505>511-220900-
EASTERN OREGON


CITY           SKY/WX    TMP DP  RH WIND       PRES   REMARKS
REDMOND        PTCLDY    25  21  85 S5        30.06S WCI  19
BEND           PTCLDY    25  25 100 CALM      30.05F
PRINEVILLE     FOG       25  25 100 CALM      30.06S VSB 1/4
KLAMATH FALLS  CLOUDY    31  28  89 W3        30.06F
LAKEVIEW       CLOUDY    32  28  86 S10       30.06S WCI  24
HERMISTON      CLOUDY    41  36  82 W6        30.08R
PENDLETON      CLOUDY    39  34  82 W10       30.06R WCI  32
JOHN DAY       FLURRIES  34  32  92 CALM      30.03R
MEACHAM        LGT SNOW  32  28  85 VRB6      29.99R VSB 1   WCI  26
LA GRANDE      CLOUDY    36  32  87 SE5       30.01R WCI  32
BAKER CITY     CLOUDY    33  30  88 E5        30.00R WCI  29
BURNS          MOCLDY    25  21  85 N3        30.04S
ROME             N/A     31  25  78 CALM      30.03F
ONTARIO        MOCLDY    33  26  75 CALM      30.06R
$$




USA.gov is the U.S. government's official web portal to all federal, state and local government web resources and services.